This is the latest recevied weather packets stored in our database for station/object AC1IX. If no packets are shown the sender has not sent any weather packets the latest 10 day(s).
| Time | Temp. | Humidity | Pressure | Rain* | Wind** | Luminosity | Snow |
|---|---|---|---|---|---|---|---|
| 1777529588 | 8.33° C | 98% | 1007.9 hPa | 0 mm | - | 0 W/m² | - |
| 1777529286 | 8.89° C | 98% | 1008 hPa | 1.78 mm | - | 0 W/m² | - |
| 1777528982 | 8.89° C | 98% | 1008.1 hPa | 3.05 mm | - | 0 W/m² | - |
| 1777528676 | 8.89° C | 98% | 1008.3 hPa | 1.27 mm | - | 0 W/m² | - |
| 1777528375 | 8.89° C | 97% | 1008.2 hPa | 1.78 mm | - | 0 W/m² | - |
| 1777528073 | 8.89° C | 96% | 1008.3 hPa | 3.56 mm | - | 0 W/m² | - |
| 1777527769 | 8.89° C | 96% | 1008.2 hPa | 1.78 mm | - | 0 W/m² | - |
| 1777527465 | 8.89° C | 95% | 1008.3 hPa | 1.27 mm | - | 0 W/m² | - |
| 1777527159 | 8.89° C | 94% | 1008.5 hPa | 3.05 mm | - | 0 W/m² | - |
| 1777526857 | 8.89° C | 95% | 1008.4 hPa | 1.78 mm | - | 0 W/m² | - |
| 1777526557 | 9.44° C | 94% | 1008.6 hPa | 0 mm | - | 0 W/m² | - |
| 1777526252 | 9.44° C | 94% | 1008.7 hPa | 1.27 mm | - | 0 W/m² | - |
| 1777525948 | 9.44° C | 92% | 1008.7 hPa | 1.27 mm | - | 0 W/m² | - |
| 1777525646 | 9.44° C | 90% | 1008.8 hPa | 0 mm | - | 0 W/m² | - |
| 1777525343 | 10° C | 91% | 1008.8 hPa | 0 mm | - | 0 W/m² | - |
| 1777525038 | 10° C | 88% | 1009 hPa | 1.78 mm | - | 0 W/m² | - |
| 1777524735 | 10° C | 88% | 1009 hPa | 1.78 mm | - | 0 W/m² | - |
| 1777524434 | 10° C | 88% | 1009.1 hPa | 0 mm | - | 0 W/m² | - |
| 1777524130 | 10° C | 87% | 1009.2 hPa | 0 mm | - | 0 W/m² | - |
| 1777523826 | 10.56° C | 85% | 1009 hPa | 0 mm | - | 0 W/m² | - |
| 1777523523 | 10.56° C | 83% | 1009.1 hPa | 1.27 mm | - | 0 W/m² | - |
| 1777523219 | 11.11° C | 82% | 1009 hPa | 1.27 mm | - | 0 W/m² | - |
| 1777522915 | 11.11° C | 79% | 1008.9 hPa | 0 mm | - | 0 W/m² | - |
| 1777522613 | 11.11° C | 79% | 1008.9 hPa | 0 mm | - | 0 W/m² | - |
| 1777522309 | 11.11° C | 80% | 1009 hPa | 0 mm | - | 0 W/m² | - |
* Rain latest hour (hover to see other rain measurements)
** Current wind speed in m/s (hover to see current wind gust speed)